Showing default

OPS 0340, 2125

Orbit data source: Space-Track

OPS 0340, 2125 is a payload satellite owned by USAF SSD (US) in SSO that was launched on Thu, 31 Mar 1966 UTC via a THOR BURNER 1 launch vehicle from the Air Force Western Test Range (AFWTR). Payload-class satellites include a variety of spacecraft equipped with specific instruments for various scientific and technological missions. These include communications satellites like Starlink; space stations such as the ISS; scientific satellites like the Hubble; Earth observation satellites from companies like Planet Labs, Umbra, and HawkEye 360; GPS; miniature CubeSats for education and research; and military/defense satellites.

Loading next visibility...
Identifier
2125, 1966-026A
Orbit
SSO
Country
Flag of USUS
Related business
Manufacturer
RCA/East Windsor
Mission
Spacecraft
Bus & Motor
P35?, Unknown motor
Mass
72 kg wet, 72 kg dry
Launch date (UTC)
1966-03-31 (60 years ago)
Launch vehicle
THOR BURNER 1
Launch site
Air Force Western Test Range (AFWTR)
Object type
Payload
Rocket body
Debris
Shape & HBR
Unknown
Radar Cross Section
Medium (>0.1 m² and <1 m²)

Expand to show TLE details & history
Last TLE update: 10 hours ago

TLE from 10 hours ago
0 OPS 0340
1 02125U 66026A   26095.19769588  .00001344  00000-0  24549-3 0  9994
2 02125  98.0261 265.6529 0147777 113.4850 248.1961 14.60694609148894
Epoch: 2026-04-05T04:44Z
TLE epoch observation values (Epoch: 2026-04-05T04:44:40.924Z)
Latitude
0.00002°
Longitude
0.97581°
Altitude
734.054 km
Speed
7.467 km/s
True Right ascension
17h 42m 36s
True Declination
0° 00' 00"
Sunlit
Object was in daylight at epoch
Visualization orbit readout
Latitude
Unknown
Longitude
Unknown
Altitude
Unknown
Speed
Unknown
Apparent Right ascension
Unknown
Apparent Declination
Unknown
Sunlit
N/A
Visualization observer readout
Local Sidereal Time
20:56:02
Azimuth
Unknown
Elevation
Unknown
Doppler factor
Unknown
Orbital elements
Apogee altitude
792.425 km
Perigee altitude
583.582 km
Semi-major axis
7,066.14 km
Eccentricity
0.01478
Inclination
98.0261°
RAAN
265.6529°
Arg. of periapsis
113.485°
True anomaly
246.63476°
Mean anomaly
248.1961°
Eccentric anomaly
247.41434°
Mean motion
3.65401 °/min
Orbital period
98.52 mins
BSTAR
0.00024549
Loading maneuver chart data...
Computing Atmospheric mass density...
Loading historical data...
Loading historical data...
Loading historical data...
Loading historical data...
Loading historical data...
Loading historical data...
Loading historical data...

Documentation

Showing up to 5 results
|